Weather History for KHBR - August, 2014

Change the Weather History Date:

Thursday, August 28, 2014

  Actual Average Record
Temperature  
Mean Temperature 78 °F -  
Max Temperature 93 °F 91 °F 109 °F (2011)
Min Temperature 66 °F 67 °F 64 °F (1997)
Cooling Degree Days 14    
Growing Degree Days 28 (Base 50)    
Moisture  
Dew Point 64 °F    
Average Humidity 72    
Maximum Humidity 97    
Minimum Humidity 34    
Precipitation  
Precipitation 0.48 in - - ()
Sea Level Pressure  
Sea Level Pressure 29.91 in    
Wind  
Wind Speed 15 mph (South)    
Max Wind Speed 31 mph    
Max Gust Speed 39 mph    
Visibility 8 miles    
Events Rain , Thunderstorm    
Averages and records for this station are not official NWS values.
T = Trace of Precipitation, MM = Missing Value Source: NWS Daily Summary

Daily Weather History Graph

Daily Weather History Graph

Search for Another Location

Airport or City:

Trip Planner

Search our weather history database for the weather conditions in past years. The results will help you decide how hot, cold, wet, or windy it might be!

Date:

Astronomy

Aug. 28, 2014 Rise Set
Actual Time 7:06 AM CDT 8:08 PM CDT
Civil Twilight 6:39 AM CDT 8:34 PM CDT
Nautical Twilight 6:09 AM CDT 9:05 PM CDT
Astronomical Twilight 5:37 AM CDT 9:36 PM CDT
Moon 9:51 AM CDT (8/28) 9:42 PM CDT (8/28)
Length of Visible Light 13h 54m
Length of Day
13h 02m
Waxing Crescent, 9% of the Moon is Illuminated
Aug 28
Waxing Crescent
Sep 2
First Quarter
Sep 8
Full
Sep 15
Last Quarter
Sep 24
New

Hourly Weather History & Observations

Time (CDT) Temp. Heat Index Dew Point Humidity Pressure Visibility Wind Dir Wind Speed Gust Speed Precip Events Conditions
12:53 AM 82.0 °F 83.4 °F 64.0 °F 54% 29.94 in 10.0 mi SSE 17.3 mph 24.2 mph N/A   Clear
1:53 AM 80.1 °F 81.7 °F 64.0 °F 58% 29.94 in 10.0 mi South 13.8 mph - N/A   Partly Cloudy
2:53 AM 79.0 °F - 64.0 °F 60% 29.93 in 10.0 mi South 15.0 mph - N/A   Scattered Clouds
3:53 AM 79.0 °F - 63.0 °F 58% 29.91 in 10.0 mi South 15.0 mph - N/A   Clear
4:53 AM 77.0 °F - 63.0 °F 62% 29.91 in 10.0 mi South 11.5 mph - N/A   Clear
5:53 AM 77.0 °F - 62.1 °F 60% 29.91 in 10.0 mi South 12.7 mph - N/A   Mostly Cloudy
6:53 AM 77.0 °F - 61.0 °F 58% 29.91 in 10.0 mi South 10.4 mph - N/A   Overcast
7:53 AM 77.0 °F - 61.0 °F 58% 29.92 in 10.0 mi South 10.4 mph - N/A   Mostly Cloudy
8:53 AM 79.0 °F - 60.1 °F 52% 29.92 in 10.0 mi South 11.5 mph - N/A   Clear
9:53 AM 84.2 °F 83.8 °F 59.0 °F 42% 29.97 in 10.0 mi South 15.0 mph - N/A   Clear
10:53 AM 90.0 °F 88.8 °F 57.9 °F 34% 29.89 in 10.0 mi SSW 18.4 mph - N/A   Clear
11:53 AM 91.0 °F 90.2 °F 59.0 °F 34% 29.88 in 10.0 mi SSW 16.1 mph 23.0 mph N/A   Clear
12:53 PM 90.0 °F 89.1 °F 59.0 °F 35% 29.88 in 10.0 mi SW 13.8 mph - N/A   Scattered Clouds
1:53 PM 77.0 °F - 70.0 °F 79% 29.88 in 4.0 mi WSW 10.4 mph - 0.03 in Rain Light Rain
2:53 PM 77.0 °F - 72.0 °F 84% 29.88 in 7.0 mi WSW 5.8 mph - 0.01 in Rain Light Rain
3:53 PM 78.1 °F - 70.0 °F 76% 29.83 in 10.0 mi SSW 5.8 mph - 0.01 in   Clear
4:53 PM 87.1 °F 89.9 °F 66.9 °F 51% 29.81 in 10.0 mi South 11.5 mph - N/A   Clear
5:25 PM 84.0 °F 87.0 °F 68.0 °F 58% 29.88 in 10.0 mi SSE 15.0 mph - N/A   Mostly Cloudy
5:53 PM 84.9 °F 86.1 °F 64.0 °F 49% 29.81 in 10.0 mi ESE 10.4 mph - N/A   Partly Cloudy
6:53 PM 80.1 °F 82.3 °F 66.9 °F 64% 29.83 in 10.0 mi SE 11.5 mph - N/A   Mostly Cloudy
7:21 PM 77.0 °F - 64.9 °F 66% 29.94 in 10.0 mi West 31.1 mph 38.0 mph N/A Thunderstorm Thunderstorm
7:31 PM 69.1 °F - 64.9 °F 87% 29.95 in 7.0 mi West 28.8 mph 39.1 mph 0.02 in Rain , Thunderstorm Light Rain
7:48 PM 66.2 °F - 64.4 °F 94% 29.95 in 6.0 mi WSW 18.4 mph 29.9 mph 0.06 in Rain , Thunderstorm Thunderstorms and Rain
7:53 PM 66.9 °F - 64.9 °F 93% 29.92 in 4.0 mi SW 13.8 mph - 0.09 in Rain , Thunderstorm Thunderstorms and Rain
8:03 PM 66.9 °F - 66.0 °F 97% 29.98 in 2.0 mi NW 9.2 mph - 0.07 in Rain , Thunderstorm Heavy Thunderstorms and Rain
8:17 PM 66.9 °F - 64.9 °F 93% 29.94 in 3.0 mi SE 12.7 mph - 0.15 in Rain , Thunderstorm Heavy Thunderstorms and Rain
8:40 PM 66.9 °F - 66.0 °F 97% 29.95 in 7.0 mi SE 15.0 mph - 0.18 in Rain , Thunderstorm Light Rain
8:53 PM 66.9 °F - 66.0 °F 97% 29.90 in 7.0 mi ESE 19.6 mph - 0.20 in Rain , Thunderstorm Rain
9:14 PM 66.9 °F - 64.9 °F 93% 29.92 in 6.0 mi ESE 18.4 mph - 0.03 in Rain Rain
9:28 PM 66.9 °F - 66.0 °F 97% 29.90 in 7.0 mi ESE 24.2 mph - 0.06 in Rain , Thunderstorm Light Rain
9:45 PM 66.9 °F - 66.0 °F 97% 29.92 in 7.0 mi SE 24.2 mph - 0.09 in Rain , Thunderstorm Light Thunderstorms and Rain
9:53 PM 66.9 °F - 64.9 °F 93% 29.87 in 7.0 mi SE 20.7 mph 29.9 mph 0.10 in Rain , Thunderstorm Thunderstorms and Rain
10:00 PM 66.9 °F - 66.0 °F 97% 29.90 in 7.0 mi ESE 28.8 mph - 0.01 in Rain Rain
10:24 PM 68.0 °F - 64.0 °F 87% 29.92 in 10.0 mi ESE 19.6 mph 33.4 mph 0.03 in Rain , Thunderstorm Light Rain
10:39 PM 68.0 °F - 64.0 °F 87% 29.93 in 10.0 mi ESE 18.4 mph - 0.03 in Rain Light Rain
10:53 PM 68.0 °F - 64.0 °F 87% 29.90 in 10.0 mi South 9.2 mph 20.7 mph 0.04 in Rain Light Rain
11:53 PM 69.1 °F - 63.0 °F 81% 29.92 in 10.0 mi Calm Calm - 0.00 in   Clear